Hourly Data Report for May 20, 2021

WIARTON A
ONTARIO
Current Station Operator: NAVCAN

44°44'39.000" N
81°06'31.000" W
221.90 m
6119499
71633
YVV

Download Data

Hourly Data (May 2021)
Hourly Data Report for May 20, 2021
TIME
LST
Temp Definition
°C
Dew Point Definition
°C
Rel Hum Definition
%
Precip. Amount Definition
mm

Wind Dir Definition
10's deg

Wind Spd Definition
km/h
Visibility Definition
km
Stn Press Definition
kPa
Hmdx Definition


Wind Chill Definition


Weather Definition


00:00 19.6 8.8 49   18 12 24.1 99.87     LegendNANA
01:00 19.7 9.0 50   19 15 24.1 99.92     Cloudy
02:00 18.6 9.8 56   20 7 24.1 99.94     LegendNANA
03:00 17.1 12.5 74   24 4 24.1 100.00     LegendNANA
04:00 16.6 11.6 72   14 13 19.3 99.98     Rain Showers
05:00 17.3 10.5 64   16 9 24.1 100.01     LegendNANA
06:00 18.0 10.9 63   16 12 24.1 100.02     LegendNANA
07:00 20.2 11.1 56   18 11 24.1 100.08     Cloudy
08:00 21.2 12.1 56   18 14 24.1 100.11     LegendNANA
09:00 24.2 12.3 47   22 17 24.1 100.11 27   LegendNANA
10:00 25.1 13.8 49   24 15 24.1 100.13 28   Cloudy
11:00 24.7 13.5 49   27 14 24.1 100.16 28   LegendNANA
12:00 23.4 14.2 56   27 10 24.1 100.17 27   LegendNANA
13:00 24.1 16.0 60   27 7 24.1 100.11 29   Cloudy
14:00 25.5 14.2 49   28 9 24.1 100.12 29   LegendNANA
15:00 26.6 14.9 48   28 8 24.1 100.07 31   LegendNANA
16:00 27.2 14.1 44   30 6 24.1 100.04 31   Cloudy
17:00 22.4 14.2 59   32 4 24.1 100.04 26   LegendNANA
18:00 20.7 13.9 65   36 1 24.1 100.02     LegendNANA
19:00 22.8 15.4 63   11 9 24.1 100.05 27   Cloudy
20:00 18.7 14.1 74   11 4 24.1 100.04     LegendNANA
21:00 17.7 13.8 78   5 3 24.1 100.07     LegendNANA
22:00 18.9 13.9 72   9 7 24.1 100.06     Cloudy
23:00 19.5 14.1 71   12 8 24.1 100.06     LegendNANA

Notes on Data Quality.

Legend

  • E = Estimated
  • M = Missing
  • NA = Not Available*
  • [empty] = Indicates an unobserved value
Date modified: